TimePST,TemperatureF,Dew PointF,Humidity,Sea Level PressureIn,VisibilityMPH,Wind Direction,Wind SpeedMPH,Gust SpeedMPH,PrecipitationIn,Events,Conditions,WindDirDegrees,DateUTC
12:53 AM,46.9,35.1,63,30.17,10.0,West,8.1,-,N/A,,Clear,280,2013-02-04 08:53:00
2:53 AM,46.9,34.0,61,30.18,10.0,Calm,Calm,-,N/A,,Clear,0,2013-02-04 10:53:00
3:53 AM,46.0,36.0,68,30.17,10.0,WSW,8.1,-,N/A,,Clear,250,2013-02-04 11:53:00
4:53 AM,45.0,35.1,68,30.19,10.0,Calm,Calm,-,N/A,,Clear,0,2013-02-04 12:53:00
5:53 AM,45.0,35.1,68,30.16,10.0,Variable,3.5,-,N/A,,Clear,0,2013-02-04 13:53:00
6:53 AM,39.9,33.1,77,30.17,10.0,ESE,8.1,-,N/A,,Clear,110,2013-02-04 14:53:00
7:53 AM,39.9,33.1,77,30.18,10.0,East,4.6,-,N/A,,Clear,100,2013-02-04 15:53:00
8:53 AM,43.0,35.1,74,30.18,10.0,East,3.5,-,N/A,,Overcast,100,2013-02-04 16:53:00
9:53 AM,43.0,35.1,74,30.17,10.0,Calm,Calm,-,N/A,,Overcast,0,2013-02-04 17:53:00
10:53 AM,45.0,36.0,71,30.16,10.0,North,3.5,-,N/A,,Overcast,360,2013-02-04 18:53:00
11:53 AM,46.9,36.0,66,30.14,10.0,Calm,Calm,-,N/A,,Overcast,0,2013-02-04 19:53:00
12:53 PM,48.9,37.9,66,30.10,10.0,Calm,Calm,-,N/A,,Overcast,0,2013-02-04 20:53:00
1:53 PM,50.0,37.9,63,30.07,10.0,NNW,3.5,-,N/A,,Overcast,330,2013-02-04 21:53:00
2:53 PM,51.1,37.9,61,30.05,10.0,Calm,Calm,-,N/A,,Overcast,0,2013-02-04 22:53:00
3:53 PM,51.1,36.0,56,30.04,10.0,Calm,Calm,-,N/A,,Overcast,0,2013-02-04 23:53:00
4:53 PM,48.9,36.0,61,30.04,10.0,Calm,Calm,-,N/A,,Mostly Cloudy,0,2013-02-05 00:53:00
5:53 PM,48.0,37.0,66,30.03,10.0,Calm,Calm,-,N/A,,Mostly Cloudy,0,2013-02-05 01:53:00
6:53 PM,45.0,37.0,74,30.02,10.0,Calm,Calm,-,N/A,,Clear,0,2013-02-05 02:53:00
7:53 PM,45.0,37.0,74,30.00,10.0,ENE,4.6,-,N/A,,Clear,70,2013-02-05 03:53:00
8:53 PM,43.0,37.0,80,29.99,10.0,Calm,Calm,-,N/A,,Clear,0,2013-02-05 04:53:00
9:53 PM,42.1,37.0,82,29.97,10.0,Calm,Calm,-,N/A,,Clear,0,2013-02-05 05:53:00
10:53 PM,42.1,36.0,79,29.97,10.0,Calm,Calm,-,N/A,,Scattered Clouds,0,2013-02-05 06:53:00
11:53 PM,39.0,36.0,89,29.96,10.0,Calm,Calm,-,N/A,,Overcast,0,2013-02-05 07:53:00